Wilmington, OH

1:38 PM EST on December 18, 2017 (GMT -0500)
Airborne

Weather History for KILN - January, 2013

Change the Weather History Date:

Wednesday, January 23, 2013

  Actual Average (KFFO) Record (KFFO)
Temperature  
Mean Temperature 16 °F -  
Max Temperature 19 °F 33 °F 62 °F (1999)
Min Temperature 12 °F 16 °F -2 °F (2005)
Degree Days  
Heating Degree Days 50    
Moisture  
Dew Point 6 °F    
Average Humidity 65    
Maximum Humidity 84    
Minimum Humidity 47    
Precipitation  
Precipitation 0.01 in - - ()
Sea Level Pressure  
Sea Level Pressure 30.31 in    
Wind  
Wind Speed 6 mph (WSW)    
Max Wind Speed 16 mph    
Max Gust Speed -    
Visibility 9 miles    
Events Snow    
Averages and records for this station are not official NWS values.
T = Trace of Precipitation, MM = Missing Value Source: NWS Daily Summary

Daily Weather History Graph

Daily Weather History Graph

Search for Another Location

Airport or City:

Trip Planner

Search our weather history database for the weather conditions in past years. The results will help you decide how hot, cold, wet, or windy it might be!

Date:

Astronomy

Jan. 23, 2013 Rise Set
Actual Time 7:49 AM EST 5:45 PM EST
Civil Twilight 7:20 AM EST 6:14 PM EST
Nautical Twilight 6:47 AM EST 6:46 PM EST
Astronomical Twilight 6:15 AM EST 7:18 PM EST
Moon 2:55 PM EST (1/23) 4:59 AM EST (1/23)
Length of Visible Light 10h 53m
Length of Day
9h 55m
Waxing Gibbous, 89% of the Moon is Illuminated
Jan 23
Waxing Gibbous
Jan 26
Full
Feb 3
Last Quarter
Feb 10
New
Feb 17
First Quarter

Hourly Weather History & Observations

Time (EST) Temp. Windchill Dew Point Humidity Pressure Visibility Wind Dir Wind Speed Gust Speed Precip Events Conditions
12:54 AM 12.0 °F 5.9 °F 1.0 °F 61% 30.41 in 10.0 mi WNW 3.5 mph - N/A   Partly Cloudy
1:54 AM 12.9 °F 3.8 °F 1.9 °F 62% 30.42 in 10.0 mi West 5.8 mph - N/A   Overcast
2:54 AM 12.9 °F 1.6 °F 1.0 °F 59% 30.42 in 10.0 mi West 8.1 mph - N/A   Overcast
3:54 AM 12.9 °F 2.6 °F -0.9 °F 54% 30.42 in 10.0 mi West 6.9 mph - N/A   Overcast
4:54 AM 12.0 °F 2.7 °F -0.0 °F 59% 30.41 in 10.0 mi West 5.8 mph - N/A   Clear
5:54 AM 12.0 °F 5.9 °F 1.9 °F 64% 30.41 in 10.0 mi WNW 3.5 mph - N/A   Mostly Cloudy
6:54 AM 12.0 °F 5.9 °F 1.9 °F 64% 30.42 in 10.0 mi NW 3.5 mph - N/A   Overcast
7:54 AM 12.0 °F 4.1 °F 3.0 °F 67% 30.42 in 10.0 mi SW 4.6 mph - N/A   Overcast
8:54 AM 14.0 °F 2.0 °F 1.9 °F 59% 30.41 in 10.0 mi SW 9.2 mph - N/A   Overcast
9:54 AM 15.1 °F 2.5 °F -0.0 °F 51% 30.42 in 10.0 mi WSW 10.4 mph - N/A   Overcast
10:54 AM 17.1 °F 3.6 °F -0.0 °F 47% 30.40 in 10.0 mi SW 12.7 mph - N/A   Overcast
11:54 AM 18.0 °F 4.8 °F 1.0 °F 48% 30.37 in 10.0 mi SW 12.7 mph - N/A   Overcast
12:54 PM 19.0 °F 4.5 °F 1.9 °F 47% 30.33 in 10.0 mi SW 16.1 mph - N/A   Overcast
1:54 PM 19.0 °F 6.8 °F 3.0 °F 50% 30.30 in 10.0 mi WSW 11.5 mph - N/A   Overcast
2:54 PM 19.0 °F 5.6 °F 5.0 °F 54% 30.28 in 10.0 mi SW 13.8 mph - N/A   Overcast
3:54 PM 19.0 °F 8.2 °F 8.1 °F 62% 30.26 in 3.0 mi WSW 9.2 mph - 0.00 in Snow Light Snow
4:02 PM 17.6 °F 6.4 °F 8.6 °F 68% 30.14 in 2.0 mi SW 9.2 mph - 0.00 in Snow Light Snow
4:35 PM 17.6 °F 7.3 °F 12.2 °F 79% 30.14 in 3.0 mi SSW 8.1 mph - 0.01 in Snow Light Snow
4:54 PM 17.1 °F 6.6 °F 12.9 °F 84% 30.25 in 8.0 mi SSW 8.1 mph - 0.01 in   Overcast
5:54 PM 18.0 °F 12.7 °F 12.0 °F 78% 30.23 in 10.0 mi SSW 3.5 mph - N/A   Overcast
6:54 PM 18.0 °F - 12.0 °F 78% 30.22 in 6.0 mi Calm Calm - 0.00 in Snow Light Snow
7:54 PM 18.0 °F - 12.0 °F 78% 30.21 in 9.0 mi Calm Calm - 0.00 in   Overcast
8:54 PM 18.0 °F - 12.9 °F 81% 30.19 in 10.0 mi Calm Calm - N/A   Overcast
9:54 PM 18.0 °F - 12.9 °F 81% 30.19 in 10.0 mi Calm Calm - N/A   Overcast
10:54 PM 18.0 °F 9.8 °F 12.9 °F 81% 30.17 in 10.0 mi SSW 5.8 mph - N/A   Overcast
11:54 PM 19.0 °F - 12.9 °F 77% 30.17 in 10.0 mi Calm Calm - N/A   Overcast